Kuchera_Ratio
0.0 0.0 0.0 0.0 0.0 0.0 0.0 0.0 0.0 0.0 0.0 0.0 0.0 0.0 0.0 0.0 0.0 0.0 0.0 0.0 0.0 6.9 6.3 0.0 0.0 5.7 4.3 2.7 9.7 8.9 9.5 10.3 12.6 13.9 14.5 15.0 14.4 10.5 10.9 8.7 12.2 13.7 15.8 15.9 15.0 16.9 17.8 0.1 2.9 7.3 0.5 0.0 0.0 0.0
0.0 0.0 0.0 0.0 0.0 0.0 0.0 0.0 0.0 0.0 0.0 0.0 0.0 0.0 0.0 0.0 0.0 0.0 0.9 0.0 0.0 5.7 7.9 0.5 0.0 0.0 0.0 0.0 3.5 7.3 9.3 9.9 10.3 14.3 13.8 13.5 15.0 13.1 11.9 15.7 6.9 14.5 10.1 13.3 12.9 13.0 3.7 0.0 0.0 0.0 0.0 0.0 0.0 0.0
0.0 0.0 0.0 0.0 0.0 0.0 0.0 0.0 0.0 0.0 0.0 0.0 0.0 0.0 0.0 0.0 0.0 0.0 0.0 0.0 0.9 5.9 7.1 5.1 6.9 0.0 0.0 0.0 0.0 9.5 9.3 9.1 10.7 8.1 11.8 12.9 14.0 10.3 15.0 13.5 11.3 8.1 5.1 9.5 10.3 6.1 3.5 0.1 0.0 0.0 0.0 0.0 0.0 0.0
0.0 0.0 0.0 0.0 0.0 0.0 0.0 0.0 0.0 0.0 0.0 0.0 0.0 0.0 0.0 0.0 0.0 0.0 2.3 2.3 0.5 4.9 11.7 11.5 0.3 6.1 0.0 0.0 0.0 0.0 4.2 5.1 5.5 5.6 10.7 12.6 13.0 8.3 12.5 10.1 10.3 6.7 5.9 7.9 9.7 4.9 3.3 2.3 0.0 0.0 0.0 0.0 0.0 0.0
0.0 0.0 0.0 0.0 0.0 0.0 0.0 0.0 0.0 0.0 0.0 0.0 0.0 0.0 0.0 0.0 0.0 0.0 0.0 0.0 0.0 1.1 12.1 11.3 0.7 0.0 0.0 0.0 0.0 0.0 1.1 2.3 5.9 9.7 11.9 13.4 10.5 9.9 11.3 9.3 11.9 6.3 8.1 10.5 12.3 0.9 0.1 0.3 0.0 0.0 0.0 0.0 0.0 0.0
0.0 0.0 0.0 0.0 0.0 0.0 0.0 0.0 0.0 0.0 0.0 0.0 0.0 0.0 0.0 0.0 0.0 0.0 6.1 0.0 0.0 1.7 7.1 13.9 6.7 3.7 0.0 0.0 1.5 2.9 2.9 5.1 7.5 9.1 12.1 9.5 7.9 9.5 13.5 13.7 7.1 5.1 2.7 0.1 1.9 0.0 0.3 0.0 0.0 0.0 0.0 0.0 0.0 0.0
0.0 0.0 0.0 0.0 0.0 0.0 0.0 0.0 0.0 0.0 0.0 0.0 0.0 0.0 0.0 0.0 0.0 7.3 8.9 3.3 0.0 0.0 7.4 12.9 12.5 4.3 3.1 2.9 6.3 5.1 5.1 7.5 5.9 9.5 10.5 9.5 8.7 8.5 12.5 14.4 5.5 4.3 2.5 1.5 0.1 0.5 2.9 0.7 1.5 0.0 0.0 0.0 0.0 0.0
0.0 0.0 0.0 0.0 0.0 0.0 0.0 0.0 0.0 0.0 0.0 0.0 0.0 0.0 0.0 0.0 0.0 3.1 1.9 0.0 0.0 1.4 5.5 13.9 13.9 9.9 3.7 9.7 11.1 7.1 9.1 7.5 9.7 10.5 8.5 9.5 8.3 9.3 14.2 8.1 5.7 3.1 2.1 2.3 0.9 0.0 0.0 0.0 0.0 0.0 0.0 0.0 0.3 0.3
0.0 0.0 0.0 0.0 0.0 0.0 0.0 0.0 0.0 0.0 0.0 0.0 0.0 0.0 0.0 3.5 7.8 5.6 0.0 0.0 0.0 2.7 13.6 13.7 14.7 15.5 5.7 10.7 9.3 8.9 8.9 14.0 10.3 12.7 10.9 7.9 13.2 14.9 8.7 7.1 5.9 3.7 3.1 1.1 0.1 0.0 0.5 2.1 2.1 2.1 0.7 0.0 1.9 2.1
0.0 0.0 0.0 0.0 0.0 0.0 0.0 0.0 0.0 0.0 0.0 0.0 0.0 4.4 10.5 6.8 0.0 0.0 1.1 3.4 4.9 8.7 9.9 14.6 11.9 15.0 10.1 12.4 14.2 12.6 12.7 13.3 15.0 12.3 9.5 12.6 12.6 5.9 4.5 2.7 1.7 1.7 1.1 0.5 4.7 6.9 5.3 5.7 4.7 4.9 4.9 4.3 4.7 4.7
0.0 0.0 0.0 0.0 0.0 0.0 0.0 0.0 0.0 0.0 0.0 4.5 10.1 12.6 4.9 0.0 4.8 8.7 12.8 13.2 13.2 14.6 12.5 13.3 11.7 13.2 8.7 12.9 13.6 12.1 14.1 12.8 16.0 13.4 13.9 14.4 14.0 8.9 6.9 8.9 6.1 4.7 4.1 4.9 4.3 5.3 5.3 6.5 7.7 7.9 7.1 5.5 5.3 5.5
0.0 0.0 0.0 0.0 0.0 0.0 0.0 0.0 0.0 2.6 6.3 5.1 6.3 5.5 6.4 11.0 12.1 13.4 15.9 13.3 13.3 15.0 13.2 13.0 13.4 12.1 10.3 6.7 11.5 12.4 13.5 13.1 16.2 11.1 14.4 16.0 11.9 7.1 9.5 10.5 8.3 6.1 5.7 6.3 5.1 6.5 6.5 6.7 6.9 7.5 7.3 7.1 6.9 7.1
0.0 0.0 0.0 0.0 0.0 0.0 0.0 0.0 0.0 0.0 1.1 5.0 8.9 12.1 12.6 14.8 16.7 16.9 18.1 16.2 16.2 13.4 10.1 11.5 13.9 9.9 9.7 8.5 13.2 14.2 16.3 16.5 11.3 15.6 15.7 12.9 8.5 8.7 8.5 8.3 8.3 5.9 5.7 6.3 6.9 5.5 5.5 6.9 6.7 7.9 9.1 8.1 8.5 8.5
0.0 0.0 0.0 0.0 0.0 0.0 0.0 0.0 0.0 0.3 3.9 12.4 14.3 15.6 16.4 18.0 15.6 14.4 14.1 13.3 12.7 10.1 8.7 9.3 12.1 11.7 10.1 12.9 12.9 17.2 14.4 13.5 16.9 18.6 15.9 12.2 7.9 8.1 8.7 8.3 7.9 8.1 7.3 7.7 7.9 7.3 8.3 8.7 9.5 9.1 10.3 10.3 12.1 10.5
0.0 0.0 0.0 0.0 0.0 0.0 0.0 0.0 0.0 4.5 10.0 14.2 14.1 18.0 16.7 14.3 13.6 12.9 13.2 11.7 12.1 7.9 11.1 12.5 10.9 9.7 13.1 15.0 13.1 14.4 16.8 18.2 16.4 16.3 13.0 10.3 11.1 11.3 10.1 9.1 8.9 9.7 10.7 9.3 8.9 11.5 12.7 11.1 11.7 12.3 11.3 10.7 10.1 12.1
0.0 0.0 1.5 0.0 0.0 0.0 0.0 1.9 5.1 7.6 12.6 13.5 12.9 15.5 14.5 14.7 15.0 14.4 13.2 13.0 10.7 10.7 8.3 10.3 12.3 13.5 14.9 13.6 15.0 16.7 16.3 18.1 14.8 12.8 10.3 9.5 9.9 9.1 8.9 9.1 10.5 9.3 9.9 10.3 9.3 11.5 12.3 11.3 12.7 12.1 13.9 14.2 12.9 12.9
0.0 6.1 0.0 0.0 0.0 0.0 0.0 4.7 8.0 13.2 14.1 14.4 15.8 14.0 14.9 15.1 14.3 14.0 12.7 12.2 9.5 9.5 14.1 12.9 15.8 15.5 13.4 15.5 15.0 12.7 15.0 12.7 11.7 12.3 8.7 6.5 7.7 7.5 7.9 10.7 11.8 11.5 11.7 9.9 12.5 13.1 13.0 11.1 12.6 12.7 13.4 12.1 12.2 12.3
4.7 0.7 0.0 0.0 0.0 1.9 7.1 9.1 13.2 14.9 14.9 14.9 15.7 15.5 14.8 13.9 13.1 12.3 11.3 10.3 9.9 12.1 12.5 13.7 12.3 14.4 15.5 16.2 15.5 12.8 12.6 10.9 9.7 8.3 8.9 8.5 7.7 8.9 8.5 8.9 10.5 10.7 10.7 13.3 13.1 13.0 13.1 12.7 12.3 12.7 12.2 12.6 13.0 12.8
0.9 0.7 0.0 0.0 0.3 6.5 12.6 11.3 9.7 16.7 16.2 15.1 15.1 15.0 14.3 13.3 12.4 11.7 10.7 10.1 10.3 8.3 9.9 11.3 14.8 14.8 14.4 12.5 12.8 12.6 12.7 10.9 12.6 12.3 9.5 9.9 11.1 12.1 12.6 12.4 11.1 12.4 12.6 11.7 11.7 12.2 12.6 13.0 12.6 12.1 12.3 12.8 13.9 13.1
0.0 0.0 0.0 0.0 2.3 9.3 12.5 12.7 7.9 13.3 15.0 14.8 13.6 14.6 13.9 12.9 12.5 11.7 12.3 10.7 7.9 9.5 12.4 13.7 14.1 12.9 12.4 8.9 7.5 7.7 7.8 11.3 12.1 13.8 13.4 12.4 12.9 13.5 11.7 10.1 8.9 10.9 11.3 11.5 12.1 14.1 13.1 12.8 12.5 12.6 12.2 12.7 13.4 13.3
3.9 4.1 1.3 0.9 6.1 8.1 11.7 13.6 13.6 12.6 11.7 14.1 13.1 13.2 14.1 13.5 13.4 13.1 12.7 7.9 11.5 12.1 13.4 12.1 11.0 8.7 8.6 8.1 8.0 8.3 8.5 9.9 10.9 10.5 12.6 13.9 12.5 10.5 10.7 8.9 9.7 10.5 12.2 12.6 12.5 13.0 14.3 13.2 12.6 11.7 12.3 12.6 12.5 12.5
8.6 1.1 6.1 4.3 12.2 12.1 13.2 9.1 12.5 10.9 13.7 12.8 13.4 13.0 15.3 15.2 14.5 13.5 9.3 12.1 12.4 13.0 14.7 14.7 13.9 12.9 12.1 9.8 8.6 9.2 9.2 9.7 12.1 12.2 12.3 12.7 12.2 12.2 12.3 11.5 11.1 12.3 12.1 11.7 12.4 12.3 12.2 11.7 12.3 12.7 12.6 12.4 13.7 12.5
3.5 7.7 12.1 12.5 16.2 16.8 16.1 9.1 14.2 13.7 17.4 16.1 13.6 15.7 16.1 15.8 14.0 9.1 13.2 13.6 16.8 15.9 15.7 15.2 13.7 12.6 11.9 11.9 11.1 11.1 12.2 12.1 13.2 13.3 13.7 11.1 11.1 11.5 12.2 12.5 11.5 12.2 12.1 12.6 11.5 12.4 13.0 14.8 14.3 14.0 13.6 13.1 13.0 13.0
5.1 12.1 14.9 15.4 17.0 20.1 15.8 16.0 13.8 14.0 14.3 15.7 16.4 17.6 16.1 16.1 12.2 13.4 17.7 19.4 17.9 16.3 16.7 16.2 15.0 12.5 12.1 12.5 13.6 13.8 13.5 12.5 13.7 13.0 12.1 12.1 13.0 13.0 11.9 12.1 12.4 12.7 12.8 12.9 13.6 14.9 15.9 16.1 15.9 15.0 15.2 14.2 13.7 14.5
15.9 18.9 18.0 20.4 16.5 19.8 20.3 19.8 17.6 16.6 19.3 17.9 18.1 17.1 17.2 14.8 17.7 20.1 21.6 20.1 19.1 19.7 19.5 17.6 16.4 15.6 16.5 16.8 16.6 16.4 15.5 14.0 13.8 15.0 14.6 13.4 14.2 14.0 13.2 13.4 14.3 14.4 12.8 13.8 14.7 15.0 15.6 15.9 16.3 16.6 16.1 15.5 14.6 13.7
21.2 19.8 21.5 21.8 21.8 21.4 20.5 21.1 21.0 20.8 19.8 20.6 21.4 19.2 17.0 19.8 22.9 23.9 21.9 20.5 20.4 20.3 20.6 20.4 19.6 18.6 18.8 18.0 18.4 18.3 17.7 16.0 14.3 16.0 16.1 14.7 14.4 14.6 14.9 15.1 16.6 17.8 16.2 16.1 15.5 15.2 15.2 14.9 15.2 15.3 15.8 16.2 16.8 14.9
21.7 22.1 18.7 15.6 17.6 17.6 21.9 22.1 19.3 22.6 23.2 23.7 22.7 23.2 22.4 24.2 25.9 22.7 19.7 20.0 19.9 19.7 19.1 19.4 19.4 20.0 20.4 20.0 19.0 18.0 17.2 16.6 15.7 16.3 16.4 16.8 17.2 17.1 17.3 18.2 19.2 19.1 17.6 18.3 18.7 17.9 17.0 15.8 15.4 15.0 15.1 14.9 16.0 16.0
21.6 21.1 22.6 22.4 22.0 21.0 23.5 24.0 24.5 24.8 22.9 19.4 21.4 24.7 25.8 25.9 25.6 22.3 21.3 19.7 19.1 19.1 19.7 19.8 19.6 19.9 20.1 20.2 19.7 19.6 18.8 17.3 17.0 17.2 17.9 18.4 18.9 19.6 20.0 20.0 20.7 20.7 20.6 20.3 19.9 19.6 19.5 19.2 18.1 16.3 15.3 15.4 15.4 15.6
21.4 21.7 22.0 24.1 24.3 23.9 24.4 24.8 23.6 21.0 19.8 20.4 24.8 24.2 24.0 22.4 22.2 21.3 21.0 20.3 19.5 20.2 21.8 22.4 22.4 21.5 21.1 20.5 20.8 20.5 20.1 19.4 19.2 20.6 21.1 21.2 20.3 20.4 20.6 21.2 21.6 21.3 20.9 20.5 20.4 20.3 20.2 19.9 19.3 18.6 17.9 17.2 15.6 15.3
22.5 22.2 24.4 25.0 25.0 25.4 23.1 22.8 22.1 22.2 22.2 21.8 20.0 20.8 22.2 23.3 22.3 21.5 21.3 21.4 22.2 23.2 23.5 23.7 24.2 23.7 24.7 24.4 24.2 23.0 22.4 21.6 22.0 22.3 22.8 22.4 21.4 20.3 21.3 22.0 22.4 22.2 21.8 21.3 20.9 20.5 20.3 20.0 19.4 19.3 19.2 19.0 18.4 18.1
22.7 22.4 24.3 25.6 25.6 23.4 23.3 22.7 22.6 22.9 23.5 23.9 24.3 24.7 25.2 24.4 22.9 22.3 22.6 23.6 24.1 24.0 23.9 24.5 24.5 24.8 25.2 25.1 25.0 25.1 24.6 23.1 23.6 23.2 22.7 22.0 21.3 21.7 21.9 22.4 23.0 23.2 23.0 22.7 22.3 21.9 21.6 21.5 21.3 20.7 20.1 19.7 19.2 19.0
23.0 24.1 25.7 25.8 26.0 24.3 23.7 23.7 23.8 23.9 24.1 24.0 25.4 25.9 26.6 26.6 26.7 24.8 23.2 23.8 24.5 24.6 24.9 25.1 25.2 25.3 24.7 24.8 25.1 25.4 25.1 25.0 24.7 24.3 24.0 23.0 21.8 22.0 23.0 23.7 23.7 23.8 23.8 23.9 23.7 23.3 23.1 22.9 22.5 22.2 21.8 21.4 21.1 20.7
26.1 25.7 26.2 26.1 26.4 26.1 25.2 25.1 27.2 27.2 26.4 26.5 26.3 26.3 26.3 26.2 27.9 25.1 23.7 23.7 23.5 23.7 24.1 24.4 24.5 24.5 24.6 24.6 24.5 24.7 25.2 25.4 24.9 24.3 24.4 24.2 24.0 24.0 24.2 24.6 24.8 24.9 25.0 24.9 24.8 24.6 24.1 23.8 23.4 23.1 22.8 22.5 22.2 22.0